Theta_e
316 316 316 316 316 316 316 316 316 317 317 317 317 317 318 318 316 309 303 310 313 325 326 310 307 306 304 300 295 292 284 281 284 287 290 295 293 298 302 299 301 303 303 309 333
315 316 316 316 316 316 316 316 316 317 318 317 318 318 318 318 307 306 317 323 325 325 308 306 303 304 296 293 294 288 282 284 290 292 291 292 293 296 297 297 298 300 304 312 322
315 315 315 315 315 315 315 316 316 317 317 317 317 318 318 315 302 300 322 326 325 321 310 308 306 301 293 292 291 287 286 290 292 293 293 291 292 296 294 292 296 297 300 305 319
315 315 314 314 315 314 315 315 316 317 317 317 318 318 318 309 292 305 323 327 325 318 311 305 299 293 290 290 293 288 293 292 294 296 293 291 294 294 294 295 299 300 301 305 314
315 315 314 313 314 314 315 315 315 316 316 317 319 319 310 303 305 313 327 326 319 312 307 301 296 293 291 292 294 289 292 295 297 296 294 295 294 294 295 298 300 301 302 302 304
316 315 314 313 313 314 314 315 314 315 315 317 319 317 306 292 311 314 318 314 312 306 304 300 298 299 293 293 291 294 295 295 295 294 294 293 294 294 299 300 299 299 299 299 302
316 316 314 314 314 314 315 315 315 315 315 318 318 313 303 298 311 313 315 306 307 309 303 304 303 300 297 294 295 295 292 294 293 294 293 295 293 294 298 298 297 298 299 299 300
316 315 314 314 314 314 315 315 314 315 316 319 318 309 299 308 310 308 310 310 308 306 305 306 304 299 296 297 296 292 288 283 291 294 296 293 287 296 299 297 297 299 299 300 299
317 315 315 313 314 314 314 314 315 316 316 319 309 305 299 316 307 310 309 306 306 305 305 309 303 298 297 290 287 288 283 286 290 294 295 291 291 295 300 297 295 297 297 298 298
316 315 315 314 313 314 313 313 314 313 315 317 314 298 301 303 309 309 307 308 305 302 301 299 295 291 289 287 282 286 285 287 289 295 296 294 293 298 298 298 299 298 297 296 297
316 315 315 314 313 312 306 302 297 295 306 297 299 303 304 308 310 305 308 305 303 299 292 294 289 286 290 291 293 292 290 289 292 296 294 294 294 296 299 297 295 296 296 295 296
316 315 315 314 313 312 303 300 302 300 294 303 303 305 307 307 301 304 307 299 298 292 294 290 286 293 295 294 292 291 289 288 292 296 294 293 292 296 298 296 298 299 299 298 296
315 315 315 314 312 305 302 304 307 302 293 300 304 303 303 302 299 301 304 300 295 292 292 288 292 296 294 293 291 289 288 289 288 293 293 292 290 293 297 298 298 299 300 299 298
314 314 313 311 303 300 299 304 307 304 288 293 296 300 301 299 298 306 305 300 294 291 291 290 294 295 292 291 292 287 293 294 293 290 284 292 281 290 293 295 298 299 300 301 301
314 314 312 310 298 300 302 304 301 304 279 295 295 302 300 297 298 302 307 301 292 293 293 290 292 291 289 291 295 291 296 292 291 288 285 288 283 289 292 291 294 297 299 300 300
313 313 311 305 300 303 305 301 305 288 280 291 294 294 293 296 297 300 300 301 300 296 295 294 298 294 295 299 298 297 292 290 288 285 281 286 285 286 289 291 293 297 299 300 301
313 312 308 306 299 301 303 302 289 281 293 290 290 293 291 292 294 297 294 290 287 282 284 291 292 294 299 291 293 290 284 274 272 279 278 287 285 288 292 296 296 296 297 299 300
311 308 307 308 303 304 303 292 282 290 290 295 294 292 290 292 292 293 290 287 292 290 282 283 282 291 296 291 289 288 284 276 269 271 275 286 280 285 295 298 299 300 298 300 299
308 304 306 309 308 304 297 285 284 291 296 294 292 288 288 291 291 289 288 287 292 293 286 284 285 294 295 296 294 287 280 289 280 282 279 281 284 290 294 295 296 297 298 297 297
300 301 304 311 305 301 292 288 291 299 300 297 287 290 285 288 287 286 287 293 293 297 297 291 283 292 294 296 295 291 291 280 286 275 274 279 280 282 287 291 295 294 295 296 298
300 299 306 309 306 297 288 289 295 302 303 297 290 288 288 286 287 285 288 292 295 297 297 290 286 288 292 289 286 285 280 286 285 283 276 276 279 288 289 291 292 293 295 296 296
296 295 307 307 295 292 291 296 300 301 303 297 294 291 288 288 285 286 286 289 296 296 287 291 288 284 286 293 294 289 286 289 283 282 284 281 282 295 292 292 294 295 297 298 299
294 294 306 304 289 289 295 298 301 300 300 296 294 294 291 287 282 286 290 296 298 293 290 292 286 281 283 286 290 289 290 289 288 287 282 280 281 295 296 296 298 297 297 298 300
296 293 297 297 296 291 291 293 295 302 300 299 298 294 291 289 289 286 288 294 297 295 302 297 288 286 281 285 289 286 288 289 287 282 281 282 284 290 293 294 297 297 295 294 296
297 293 295 288 292 293 291 294 294 293 300 299 292 295 292 287 286 286 289 291 294 299 293 294 285 287 288 289 288 287 287 287 286 287 282 284 283 287 290 292 293 294 294 294 294
295 295 296 293 294 291 292 291 294 295 297 294 293 295 295 286 288 287 289 289 287 290 291 292 285 287 285 289 288 286 288 288 289 288 285 285 283 290 292 293 292 292 291 291 293
304 300 299 292 291 289 290 294 295 297 299 299 297 295 293 293 295 296 294 293 292 288 287 290 288 285 280 286 285 280 284 285 284 286 284 280 285 289 289 290 289 289 290 290 292
Wind_Speed
18 17 16 16 15 13 12 11 11 12 12 13 13 14 14 14 13 1 1 5 5 8 9 7 4 7 3 2 1 3 4 0 3 3 6 10 7 2 4 5 3 0 1 4 9
19 18 17 16 16 14 13 12 11 11 12 12 12 13 13 13 3 2 5 7 7 6 5 7 8 8 4 2 2 5 4 6 7 6 8 7 7 12 4 8 4 3 4 4 6
21 20 18 17 16 15 14 12 12 12 12 12 12 13 12 6 1 3 6 8 6 3 1 2 3 1 4 4 3 2 4 5 8 9 7 8 7 7 5 5 5 5 4 6 5
21 21 19 18 17 16 14 13 12 11 12 12 12 12 12 1 2 4 9 9 5 4 3 3 5 5 5 6 5 3 6 3 7 8 7 6 4 5 6 7 5 6 4 2 5
22 21 20 19 17 16 15 14 13 12 11 12 11 11 3 2 3 5 10 5 4 3 4 3 4 2 3 4 7 4 2 5 7 11 8 8 9 7 8 9 8 7 6 3 3
20 21 20 17 16 15 14 12 11 10 10 11 9 9 2 3 2 4 5 2 5 1 3 2 2 4 1 4 2 5 10 11 5 8 7 6 8 1 20 2 7 8 11 6 7
22 20 20 17 16 15 14 12 10 10 8 9 7 2 2 6 0 5 6 4 2 5 4 4 2 2 1 6 3 5 10 11 4 5 5 5 10 13 11 6 9 10 10 8 8
23 21 20 19 17 16 16 13 12 11 7 6 4 1 4 2 1 3 4 8 7 7 6 8 3 3 3 3 7 6 3 6 7 5 7 3 12 10 12 7 13 14 11 12 8
23 21 20 20 18 17 17 16 11 5 4 4 1 3 6 8 2 7 8 9 3 3 5 4 7 5 1 1 5 5 6 6 8 1 6 1 18 4 12 9 9 12 9 12 7
23 22 20 19 19 17 18 9 1 2 1 3 2 3 3 3 4 4 8 10 8 3 5 2 5 2 2 3 7 11 8 8 13 17 18 18 24 17 8 10 13 12 8 9 9
24 23 20 19 17 14 9 2 6 5 2 3 6 3 6 6 6 5 5 4 4 3 5 3 3 7 12 11 16 11 14 18 15 16 17 22 26 22 13 9 10 12 9 8 10
25 25 23 20 16 9 0 3 4 4 7 5 6 5 6 4 5 10 5 2 2 8 4 4 7 13 10 9 11 13 16 18 14 15 14 18 27 19 15 10 13 15 13 10 6
26 27 23 20 17 3 1 5 4 3 2 7 4 4 4 2 1 6 6 5 3 5 6 7 11 10 12 15 14 11 11 14 12 8 9 13 29 19 14 9 8 10 11 10 10
28 26 24 20 2 3 4 2 5 2 5 5 5 2 6 5 2 1 4 1 3 7 6 6 6 18 15 16 11 14 5 6 10 7 13 9 20 27 12 21 16 14 14 17 17
30 25 20 8 2 0 3 6 1 5 4 5 3 3 9 4 5 4 4 4 4 4 1 8 13 20 11 8 2 5 4 1 7 11 5 11 7 26 8 13 12 13 17 18 15
33 27 15 1 1 5 6 4 5 7 1 5 2 7 7 3 6 5 4 3 3 3 3 10 14 4 4 4 3 3 4 16 5 2 8 10 15 18 13 14 7 14 14 14 14
32 28 7 1 4 4 4 5 7 5 6 6 6 5 5 4 8 2 4 9 1 5 5 16 3 6 3 4 5 7 7 6 6 3 8 6 10 16 7 12 10 10 11 13 12
34 19 2 4 5 6 5 7 6 1 7 5 7 7 5 4 5 4 8 8 3 3 3 4 14 2 4 6 10 12 8 5 7 4 5 5 11 7 12 14 13 9 8 11 10
25 5 4 5 1 3 7 6 4 3 5 6 8 4 3 3 5 6 4 4 5 8 4 7 9 11 19 20 6 4 4 4 6 10 9 6 7 10 13 12 8 8 8 10 9
4 5 5 11 3 6 7 4 3 2 6 4 4 3 7 11 4 5 4 6 5 8 6 6 20 9 4 3 9 12 4 1 3 5 7 5 4 9 9 5 4 6 8 9 8
4 5 5 8 4 7 4 4 5 9 7 4 4 7 8 6 5 4 7 10 5 3 9 4 7 9 8 6 5 1 3 5 4 4 4 6 5 7 10 11 5 7 8 7 8
4 3 6 6 7 2 2 5 7 6 6 5 5 3 5 8 6 5 7 6 9 3 5 7 5 10 10 24 9 4 5 5 4 3 5 5 14 11 6 3 2 5 7 7 7
3 4 5 6 5 4 7 7 4 6 6 3 5 4 4 4 8 4 10 7 7 3 5 4 4 5 5 4 5 2 2 4 7 8 17 13 8 1 5 7 5 6 5 6 10
3 5 6 6 1 2 4 6 8 7 10 4 17 4 5 8 7 9 5 5 7 8 12 7 2 7 11 16 10 15 16 17 14 7 14 17 28 18 19 18 14 16 10 7 9
3 2 2 4 5 5 2 5 6 7 5 6 5 6 13 9 8 6 11 18 15 3 3 4 4 8 16 22 22 23 23 20 20 19 17 18 16 17 19 15 13 10 13 12 12
2 4 4 4 3 3 2 4 11 10 7 12 6 18 13 8 11 18 20 18 8 2 3 3 5 11 17 17 22 24 22 20 19 12 13 17 25 20 17 6 11 12 15 15 15
2 3 2 4 3 1 4 3 17 12 11 11 14 18 15 14 10 19 21 16 12 5 6 3 4 7 8 8 19 12 3 3 3 7 9 16 24 18 15 15 14 20 17 19 16
Wind_Direction
354 350 348 346 346 345 343 342 342 343 342 337 332 322 324 329 324 87 338 231 225 319 326 300 26 7 69 53 65 99 65 338 266 319 261 297 303 174 258 253 353 254 218 286 46
353 350 347 344 342 341 339 339 338 338 338 334 331 324 326 332 339 319 253 227 254 323 15 20 351 358 10 2 31 97 114 230 213 225 249 262 264 290 295 301 209 276 302 342 67
351 349 346 343 339 337 335 333 333 335 337 335 332 325 325 328 3 276 221 228 262 332 324 351 319 14 19 6 7 65 200 234 267 255 270 266 282 260 251 273 233 267 300 332 60
350 349 346 341 337 334 331 329 328 331 333 330 331 326 329 152 110 240 208 229 262 303 306 14 18 32 29 348 337 303 260 268 296 309 318 274 275 291 225 231 243 253 235 162 125
348 348 347 344 338 333 329 325 324 327 330 326 332 330 342 32 255 230 206 229 262 272 322 14 57 70 356 302 327 203 271 294 276 292 270 276 267 249 267 238 255 273 294 271 186
345 346 346 343 339 330 322 315 313 319 323 321 334 326 7 64 249 201 188 203 236 255 305 266 230 203 152 300 338 293 293 292 276 258 255 263 272 343 270 116 255 258 268 247 194
344 345 345 342 335 327 317 310 307 308 314 313 334 353 68 222 94 200 171 227 227 190 229 243 193 49 163 307 258 267 307 315 253 248 275 241 305 252 305 323 291 278 274 267 237
344 343 342 341 334 325 316 312 306 299 301 293 336 9 254 224 332 200 157 288 243 237 217 249 191 212 182 259 344 339 357 343 287 309 270 131 271 300 280 283 280 280 272 270 246
342 341 340 339 333 325 315 316 304 281 236 271 6 45 282 318 273 244 161 231 263 249 232 231 122 200 19 105 349 346 265 281 302 149 277 200 287 257 313 296 279 282 272 271 264
340 340 336 334 329 324 318 303 127 114 165 191 240 358 287 306 261 241 203 222 253 327 328 131 67 164 37 91 260 271 264 256 280 295 304 296 277 290 270 284 283 276 271 264 268
338 336 333 329 325 331 348 8 14 356 106 206 243 261 279 282 276 294 250 176 185 199 228 214 125 240 243 233 254 263 266 265 274 283 284 286 281 289 285 265 276 277 276 251 262
336 334 333 326 324 324 37 65 211 206 313 237 243 249 265 234 313 333 22 151 142 253 337 356 243 247 248 247 251 247 260 268 270 260 271 281 276 281 272 244 251 266 271 266 245
336 333 331 327 324 104 307 247 312 99 88 298 207 218 261 120 328 339 27 337 28 347 280 229 249 295 283 275 258 246 252 272 277 289 270 300 285 279 266 263 255 255 258 249 231
336 336 334 328 75 307 290 312 351 73 60 309 348 336 357 341 92 305 15 5 358 278 290 272 300 309 295 277 260 270 269 280 307 307 283 174 278 274 258 260 252 262 259 259 255
336 338 338 330 213 354 281 333 285 63 59 301 352 316 318 43 303 8 27 338 308 269 52 261 319 313 300 262 217 250 319 267 284 271 290 231 255 276 208 250 254 245 246 250 247
335 335 336 242 346 249 322 336 54 43 315 326 0 332 7 357 350 336 1 6 272 293 279 262 292 231 245 298 153 236 357 312 300 150 243 235 218 274 239 250 241 253 254 253 255
333 331 320 313 265 338 341 49 40 84 349 315 299 324 306 300 322 334 317 335 228 5 280 314 247 279 190 321 355 37 29 318 330 225 244 320 238 245 269 264 233 249 263 261 254
329 326 287 257 346 355 41 49 69 130 272 295 281 281 248 340 247 288 314 314 225 200 332 332 313 251 201 272 293 289 171 197 242 232 264 331 256 249 228 251 249 264 286 269 250
323 338 328 273 235 76 63 50 204 286 310 300 312 279 281 245 244 337 266 272 237 171 220 311 260 298 286 285 161 256 173 207 268 273 265 222 286 304 264 256 260 284 308 275 260
335 343 299 327 110 62 71 232 248 241 307 280 274 288 295 313 314 332 308 251 275 192 141 240 289 276 287 285 237 206 186 6 185 256 259 255 245 244 297 284 296 292 292 326 317
17 22 270 346 47 47 106 251 292 311 345 284 269 262 266 299 233 248 245 281 284 259 196 215 217 279 341 222 207 148 209 213 227 207 251 300 233 221 231 245 234 304 298 305 312
359 2 312 5 50 29 7 303 289 283 336 294 319 282 280 308 275 256 226 218 297 289 246 210 243 270 260 278 274 195 238 187 258 261 234 262 266 238 261 199 296 310 329 339 325
355 279 324 57 73 342 313 302 266 310 309 321 294 287 287 289 324 266 285 252 280 272 250 177 241 298 281 3 15 92 182 243 244 270 249 252 253 305 5 323 304 303 307 320 321
11 355 333 35 58 101 322 283 318 316 297 1 304 280 337 298 225 274 284 287 265 256 289 153 239 240 277 278 275 269 265 260 248 242 263 249 272 280 292 286 294 309 306 330 318
28 289 189 312 328 329 215 268 317 341 299 328 303 358 317 308 294 243 300 305 309 201 131 163 247 255 260 264 269 268 266 265 252 254 250 271 277 285 280 283 293 303 304 312 308
42 353 348 265 251 277 295 286 309 329 308 312 306 309 305 271 259 303 309 302 268 211 188 167 277 298 290 258 264 269 264 251 257 245 265 273 273 277 281 280 273 284 297 290 289
341 324 315 263 278 305 240 262 314 307 291 300 307 309 297 283 275 282 277 275 247 224 201 216 273 303 287 298 299 280 331 82 280 250 263 270 287 298 289 277 289 292 284 276 273